Location: Brede
(50.9167°N, 0.6000°E)
Time: 17:55:32
(UTC+00:00)

Tiros 1 despin weight - Pass Details

Date: 27 November 2020
Orbit: 594 x 641 km, 48.2° (Epoch: 15 January)

Event Time Altitude Azimuth Distance (km) Brightness Sun altitude
Rises 17:22:11 0° 278° (W) 2,944 ? -12.8°
Reaches altitude 10° 17:24:39 10° 271° (W) 2,030 ? -13.2°
Maximum altitude 17:28:57 37° 204° (SSW) 983 ? -13.9°
Drops below altitude 10° 17:33:12 10° 137° (SE) 2,005 ? -14.5°
Enters shadow 17:34:21 - 132° (SE) 2,419 ? -14.7°
